International Skating Union - Official Site

ISU World Cup Speed Skating Heerenveen
November 10-12, 2017

Draw | Lap Times | Index | World Cup

Referee: Daniel  CABELDUC  (SWE)
Starter: Jouko  VESTERLUND  (FIN)
StartTime: EndTime: Air Temp: Ice Temp: Humidity:
17:41 18:07 14.5 ℃ -13 ℃ 44%
Result Team Pursuit Ladies
Rankings as of Nov 12 2017 6:01PM
Rank: No.: Team: Nation: Time: Behind: Points:
Total 11
1 21 Japan (251) Miho Takagi (249) Ayano Sato (252) Nana Takagi (245) Ayaka Kikuchi JPN JPN 2:55.770.5 - 18.54 - (18.5)
1.0 - 32.67 - (14.1)
1.5 - 46.58 - (13.9)
2.0 - 1:00.63 - (14.0)
2.5 - 1:14.65 - (14.0)
3.0 - 1:28.79 - (14.1)
3.5 - 1:43.21 - (14.4)
4.0 - 1:57.56 - (14.3)
4.5 - 2:11.99 - (14.4)
5.0 - 2:26.67 - (14.6)
5.5 - 2:41.16 - (14.4)
6.0 - 2:55.77 - (14.5)
100
2 22 Netherlands (280) Ireen Wüst (275) Jorien ter Mors (267) Antoinette de Jong (272) Marrit Leenstra NED NED 2:59.060.5 - 18.48 - (18.4)
1.0 - 32.42 - (13.9)
1.5 - 46.48 - (14.0)
2.0 - 1:00.79 - (14.3)
2.5 - 1:15.00 - (14.2)
3.0 - 1:29.36 - (14.3)
3.5 - 1:44.16 - (14.7)
4.0 - 1:58.92 - (14.7)
4.5 - 2:13.87 - (14.9)
5.0 - 2:29.05 - (15.1)
5.5 - 2:44.11 - (15.0)
6.0 - 2:59.06 - (14.9)
3.29 80
3 30 Canada (206) Ivanie Blondin (213) Isabelle Weidemann (210) Josie Morrison (211) Keri Morrison CAN CAN 3:00.650.5 - 19.68 - (19.6)
1.0 - 34.15 - (14.4)
1.5 - 48.31 - (14.1)
2.0 - 1:02.83 - (14.5)
2.5 - 1:17.35 - (14.5)
3.0 - 1:31.97 - (14.6)
3.5 - 1:46.75 - (14.7)
4.0 - 2:01.37 - (14.6)
4.5 - 2:16.01 - (14.6)
5.0 - 2:30.89 - (14.8)
5.5 - 2:45.71 - (14.8)
6.0 - 3:00.65 - (14.9)
4.88 70
4 25 Poland (289) Natalia Czerwonka (291) Katarzyna Wozniak (287) Katarzyna Bachleda-Curus (293) Luiza Zlotkowska POL POL 3:02.140.5 - 19.05 - (19.0)
1.0 - 33.28 - (14.2)
1.5 - 47.56 - (14.2)
2.0 - 1:02.11 - (14.5)
2.5 - 1:16.93 - (14.8)
3.0 - 1:31.73 - (14.7)
3.5 - 1:46.56 - (14.8)
4.0 - 2:01.32 - (14.7)
4.5 - 2:16.30 - (14.9)
5.0 - 2:31.35 - (15.0)
5.5 - 2:46.76 - (15.4)
6.0 - 3:02.14 - (15.3)
6.37 60
5 26 Korea (257) Bo-Reum Kim (262) Ji Woo Park (261) Seon-Yeong Noh KOR KOR 3:02.660.5 - 19.13 - (19.1)
1.0 - 33.58 - (14.4)
1.5 - 47.71 - (14.1)
2.0 - 1:02.10 - (14.3)
2.5 - 1:16.56 - (14.4)
3.0 - 1:31.22 - (14.6)
3.5 - 1:45.92 - (14.7)
4.0 - 2:00.90 - (14.9)
4.5 - 2:16.14 - (15.2)
5.0 - 2:31.70 - (15.5)
5.5 - 2:47.01 - (15.3)
6.0 - 3:02.66 - (15.6)
6.89 50
6 24 Germany (237) Claudia Pechstein (235) Roxanne Dufter (236) Gabriele Hirschbichler (238) Michelle Uhrig GER GER 3:02.850.5 - 19.15 - (19.1)
1.0 - 33.35 - (14.2)
1.5 - 47.47 - (14.1)
2.0 - 1:01.72 - (14.2)
2.5 - 1:16.23 - (14.5)
3.0 - 1:31.03 - (14.7)
3.5 - 1:46.24 - (15.2)
4.0 - 2:01.37 - (15.1)
4.5 - 2:16.63 - (15.2)
5.0 - 2:31.91 - (15.2)
5.5 - 2:47.27 - (15.3)
6.0 - 3:02.85 - (15.5)
7.08 45
7 28 USA (312) Mia Manganello (313) Carlijn Schoutens (308) Petra Acker (314) Paige Schwartzburg USA USA 3:04.010.5 - 19.84 - (19.8)
1.0 - 34.32 - (14.4)
1.5 - 48.57 - (14.2)
2.0 - 1:02.84 - (14.2)
2.5 - 1:17.33 - (14.4)
3.0 - 1:32.26 - (14.9)
3.5 - 1:47.12 - (14.8)
4.0 - 2:02.07 - (14.9)
4.5 - 2:17.30 - (15.2)
5.0 - 2:32.71 - (15.4)
5.5 - 2:48.26 - (15.5)
6.0 - 3:04.01 - (15.7)
8.24 40
8 27 China (216) Jiachen Hao (215) Mei Han (316) Jing Liu (218) Dan Li CHN CHN 3:04.030.5 - 18.65 - (18.6)
1.0 - 32.75 - (14.1)
1.5 - 47.06 - (14.3)
2.0 - 1:01.42 - (14.3)
2.5 - 1:16.21 - (14.7)
3.0 - 1:30.87 - (14.6)
3.5 - 1:45.70 - (14.8)
4.0 - 2:00.94 - (15.2)
4.5 - 2:16.32 - (15.3)
5.0 - 2:32.17 - (15.8)
5.5 - 2:48.04 - (15.8)
6.0 - 3:04.03 - (15.9)
8.26 35
9 29 Czech Republic (227) Martina Sáblíková (228) Nikola Zdráhalova (226) Natálie Kerschbaummayr (224) Eliska Drimalova CZE CZE 3:07.300.5 - 19.35 - (19.3)
1.0 - 33.95 - (14.6)
1.5 - 48.73 - (14.7)
2.0 - 1:03.64 - (14.9)
2.5 - 1:18.77 - (15.1)
3.0 - 1:33.93 - (15.1)
3.5 - 1:49.15 - (15.2)
4.0 - 2:04.35 - (15.1)
4.5 - 2:19.64 - (15.2)
5.0 - 2:35.17 - (15.5)
5.5 - 2:51.00 - (15.8)
6.0 - 3:07.30 - (16.3)
11.53 30
10 31 Italy (241) Francesca Lollobrigida (239) Francesca Bettrone (242) Gloria Malfatti (240) Yvonne Daldossi ITA ITA 3:14.190.5 - 19.69 - (19.6)
1.0 - 34.61 - (14.9)
1.5 - 49.58 - (14.9)
2.0 - 1:04.81 - (15.2)
2.5 - 1:20.55 - (15.7)
3.0 - 1:36.29 - (15.7)
3.5 - 1:52.29 - (16.0)
4.0 - 2:08.45 - (16.1)
4.5 - 2:24.80 - (16.3)
5.0 - 2:41.34 - (16.5)
5.5 - 2:57.52 - (16.1)
6.0 - 3:14.19 - (16.6)
18.42 25
11 23 Russia (304) Natalia Voronina (301) Yekaterina Shikhova (298) Olga Graf (305) Anna Yurakova RUS RUS DNF0.5 - 19.05 - (19.0)
1.0 - 33.10 - (14.0)
1.5 - 47.02 - (13.9)
2.0 - 1:01.29 - (14.2)
2.5 - 1:15.93 - (14.6)
3.0 - 1:30.82 - (14.8)
3.5 - 1:45.70 - (14.8)
4.0 - 2:00.75 - (15.0)
4.5 - 2:15.45 - (14.6)
0